Wind_Speed
38 38 37 38 36 35 34 32 31 32 32 32 31 27 24 20 20 20 19 19 16 17 18 18 18 20 22 24 27 29 32 36 41 43 48 49 50 48 48 50 50 53 57
35 35 36 37 36 35 33 32 33 34 32 30 28 27 22 21 22 18 19 18 17 16 17 18 21 22 24 26 28 32 36 40 44 48 50 53 51 47 50 49 55 57 58
34 32 35 34 35 34 32 31 31 30 29 26 28 25 22 23 21 19 19 17 17 18 20 21 23 25 26 29 32 35 38 43 48 51 54 54 52 50 49 53 57 59 59
36 32 29 31 33 33 32 31 30 30 28 28 27 25 24 24 19 20 19 19 20 21 23 26 27 29 31 33 36 38 43 47 51 53 55 56 52 49 52 54 57 58 57
39 32 30 27 31 33 32 31 31 30 29 29 27 26 26 22 19 20 21 22 23 24 27 29 30 33 35 37 41 44 48 51 54 58 58 58 53 53 56 56 57 58 57
42 35 31 28 26 29 30 31 31 31 30 29 26 26 24 22 22 23 24 25 26 28 30 31 34 36 39 42 44 46 49 55 57 60 60 60 56 56 57 58 60 62 62
43 38 33 30 29 29 30 31 30 30 29 28 27 26 25 25 26 27 27 27 29 31 32 35 39 41 42 44 48 52 55 57 62 63 64 62 60 58 60 63 64 63 64
45 42 37 33 33 31 31 31 31 29 28 28 29 28 27 28 29 30 30 31 33 34 37 41 44 45 47 49 53 55 60 63 65 65 64 62 60 62 65 66 67 66 68
47 44 40 37 36 34 33 32 31 30 29 30 30 30 30 31 31 32 33 35 37 41 44 46 46 47 51 54 57 60 64 65 66 64 64 64 64 70 68 69 69 71 73
48 47 44 41 38 37 35 35 33 32 32 31 31 31 32 33 35 37 39 40 43 45 46 48 50 53 56 58 61 66 66 67 67 64 64 70 72 69 69 69 72 75 75
51 49 47 44 40 39 38 37 36 35 35 35 35 35 35 37 39 41 43 45 45 47 48 51 55 59 61 63 65 68 68 67 65 66 72 74 72 71 70 73 78 77 77
55 52 50 47 44 43 42 41 41 40 39 39 39 40 41 41 42 43 44 45 47 49 51 54 58 61 62 65 68 69 66 66 68 71 76 74 73 72 74 77 79 80 82
59 57 54 51 49 47 47 45 44 44 44 43 44 45 46 46 46 46 48 49 51 53 55 59 61 63 66 69 70 66 66 69 73 77 77 75 73 74 77 80 81 84 84
62 59 56 55 53 51 50 49 50 49 48 48 48 49 50 50 50 51 54 55 56 57 61 65 66 68 70 71 67 66 69 73 77 79 77 76 74 77 81 84 84 87 85
66 64 61 58 58 56 55 54 54 53 52 52 52 52 54 54 55 56 57 59 60 63 66 68 70 71 73 69 68 69 73 77 81 79 78 76 78 82 86 87 89 90 85
66 68 64 63 62 60 60 58 58 57 57 57 56 56 57 58 58 59 60 62 64 67 69 71 72 73 73 71 72 74 79 82 82 82 81 82 85 87 91 93 92 91 80
69 68 67 66 65 64 63 60 59 60 60 59 58 60 60 60 61 63 65 67 68 69 71 74 73 72 71 75 78 80 83 85 84 85 86 90 92 95 95 96 96 90 77
70 66 66 66 67 67 65 66 65 64 63 62 62 63 64 65 66 68 70 70 70 72 74 74 71 71 76 80 82 86 87 85 85 87 91 94 98 100 100 101 97 82 72
75 77 76 75 73 71 69 68 67 69 68 68 69 68 69 69 70 71 72 73 72 74 75 74 74 78 82 85 87 89 89 88 88 92 97 99 101 103 106 104 89 78 73
79 81 80 79 78 77 75 74 72 71 71 71 71 71 71 72 72 73 74 75 77 75 75 75 79 81 84 88 89 91 91 92 94 97 100 103 106 109 107 95 86 81 79
82 82 81 81 81 80 78 76 75 74 74 74 75 74 74 74 74 75 77 77 75 75 78 81 82 84 88 90 92 93 94 95 99 103 106 109 110 109 96 88 86 86 89
85 84 82 80 80 79 78 77 77 77 77 77 77 76 76 77 78 77 75 74 76 76 79 84 87 89 91 93 95 96 96 99 104 107 111 112 112 100 91 89 91 95 97
84 84 84 83 82 81 79 79 79 79 79 79 79 79 79 77 77 77 74 75 77 80 84 88 92 94 96 97 98 102 102 103 107 112 114 112 102 96 95 99 103 100 91
88 86 85 83 83 83 83 82 81 81 80 81 80 79 79 78 75 73 76 79 82 85 87 92 96 98 99 99 103 106 108 110 110 110 111 103 99 101 104 103 95 91 88
94 91 88 86 84 84 84 83 82 82 82 82 82 81 82 84 86 87 86 89 90 91 94 97 98 100 100 102 104 107 111 114 115 117 108 98 102 105 98 94 90 89 87
95 94 92 89 88 87 87 86 85 83 81 81 81 82 83 84 85 85 88 91 94 96 98 99 99 100 101 105 108 110 113 115 119 112 102 103 100 95 94 90 90 87 84
Wind_Direction
238 240 240 241 241 239 239 239 237 241 244 248 253 255 261 267 273 271 282 282 286 291 295 299 304 310 312 312 315 318 318 318 322 323 323 323 323 320 321 320 324 323 321
235 237 239 237 236 235 235 235 238 241 243 244 250 253 253 261 265 269 274 277 286 292 297 302 308 309 311 312 313 314 319 319 320 321 324 324 323 321 321 324 326 324 321
231 233 236 236 234 233 231 233 236 238 237 243 246 246 251 258 263 267 270 277 282 288 294 301 304 307 308 311 313 315 316 315 319 320 323 325 324 322 322 323 324 323 320
230 230 232 234 234 231 231 234 236 235 239 237 240 247 252 256 261 265 272 276 283 290 298 301 304 306 309 311 312 312 312 316 320 323 324 325 324 323 323 322 322 322 322
231 230 229 230 232 230 230 232 233 236 233 236 243 248 251 254 260 265 269 275 283 290 295 299 304 307 307 307 308 308 310 313 318 324 325 326 325 324 322 320 321 324 324
232 232 232 231 230 227 225 227 229 230 234 241 245 247 250 257 260 265 271 276 283 289 295 300 302 303 302 304 307 310 311 314 319 324 325 327 324 320 321 322 323 323 324
233 234 233 233 234 234 234 233 233 235 240 243 244 248 254 258 263 268 273 279 285 289 294 298 299 300 303 305 306 310 314 316 321 325 325 324 322 320 320 321 325 324 324
234 235 234 233 235 237 238 238 238 238 240 243 246 250 256 260 264 269 275 281 285 288 292 296 298 298 300 303 306 311 315 318 320 322 322 321 320 319 319 322 323 324 324
233 234 236 236 235 238 239 238 239 240 241 244 248 251 257 261 266 272 277 281 286 288 291 295 295 297 301 305 308 313 316 316 318 320 319 319 318 320 321 322 323 324 325
234 235 236 237 237 239 242 240 241 241 244 249 254 258 265 271 276 278 280 282 285 289 293 296 298 301 305 307 309 313 314 316 316 316 317 318 318 319 321 321 322 323 324
234 236 238 239 240 241 242 243 244 247 250 253 257 260 262 265 268 273 278 283 288 291 295 298 302 304 306 307 310 313 314 314 314 315 316 317 318 318 318 320 321 322 324
235 237 240 241 241 242 244 246 249 252 255 257 260 263 265 269 272 276 280 285 288 292 296 300 302 304 307 309 311 313 311 310 312 314 315 316 316 317 318 320 320 322 322
234 236 238 241 242 243 245 248 251 254 257 260 263 266 268 272 275 280 284 286 289 292 296 296 300 305 308 310 311 308 308 310 312 313 315 316 314 315 317 318 319 319 319
235 237 237 238 240 244 247 250 254 257 259 261 265 269 272 275 278 282 285 287 289 292 294 298 302 305 308 309 305 306 307 310 312 314 315 313 312 313 313 317 316 318 318
233 237 239 239 243 244 247 251 254 257 261 263 266 270 274 277 279 282 285 288 290 292 296 299 301 304 307 303 301 302 307 310 313 313 312 310 310 311 314 314 316 318 316
236 237 239 240 242 245 248 251 254 257 261 264 267 269 273 275 278 281 285 288 291 294 296 299 302 304 302 300 299 303 308 311 311 310 309 309 310 312 312 314 315 315 311
236 239 240 242 244 246 247 252 255 257 259 262 265 270 273 276 280 284 286 288 291 293 296 298 300 299 297 297 301 305 308 309 310 310 310 311 311 312 313 313 313 312 307
233 235 241 242 244 247 249 251 255 258 262 265 268 271 274 278 280 282 285 288 290 292 295 297 295 294 295 298 301 305 307 309 309 309 309 311 312 313 312 312 311 307 302
236 239 242 245 246 249 251 254 256 259 263 266 269 272 274 276 279 283 285 287 289 293 294 293 292 295 297 298 303 305 308 309 310 310 310 311 312 312 312 311 308 303 300
236 237 240 244 247 250 253 257 259 262 265 267 269 271 274 276 280 282 284 287 291 292 291 292 294 296 297 301 303 305 308 309 309 309 310 310 312 312 311 307 305 304 301
240 240 240 242 247 251 255 258 261 263 266 268 270 273 276 279 280 282 285 287 288 288 290 291 293 295 298 300 303 305 307 308 308 309 310 311 311 311 309 306 303 301 300
240 243 245 246 247 249 252 256 259 262 265 267 270 272 275 276 279 281 284 285 285 286 287 290 292 295 299 301 302 305 306 308 308 310 310 311 311 310 304 300 299 297 297
239 242 244 247 249 251 252 254 256 259 262 265 269 272 275 277 279 282 282 282 283 285 288 291 295 298 300 302 305 305 307 308 308 310 311 310 308 303 301 300 300 300 298
237 240 242 245 248 251 253 255 257 258 260 263 266 269 271 274 275 274 275 278 280 284 288 291 293 296 300 303 304 306 307 308 308 309 309 306 304 304 303 302 300 299 298
239 241 242 244 247 250 254 255 258 261 264 267 270 273 274 275 278 279 281 281 284 285 286 289 293 297 300 302 304 306 307 308 308 308 306 303 304 304 303 301 301 300 299
240 242 245 246 248 250 252 254 257 259 262 264 267 270 272 274 276 277 279 282 284 287 289 292 295 298 301 302 304 306 306 307 308 306 304 305 305 304 304 304 302 300 297
Height
10907 10909 10912 10915 10918 10921 10924 10927 10929 10931 10932 10933 10935 10936 10936 10936 10936 10937 10937 10938 10937 10937 10937 10936 10935 10934 10933 10932 10931 10929 10928 10925 10922 10919 10917 10914 10910 10906 10903 10900 10896 10891 10886
10904 10906 10908 10911 10914 10917 10920 10923 10925 10927 10929 10930 10931 10932 10933 10933 10934 10934 10935 10935 10934 10934 10934 10933 10931 10930 10929 10928 10927 10926 10923 10920 10918 10915 10912 10909 10905 10901 10898 10893 10889 10884 10878
10901 10902 10905 10908 10910 10913 10916 10919 10921 10923 10924 10925 10928 10929 10929 10930 10931 10931 10932 10931 10931 10931 10930 10929 10928 10926 10925 10924 10923 10921 10919 10916 10914 10911 10907 10903 10899 10895 10891 10887 10882 10876 10871
10897 10899 10902 10904 10906 10909 10912 10915 10917 10918 10920 10922 10924 10925 10926 10927 10927 10928 10928 10928 10928 10927 10926 10925 10924 10923 10921 10920 10918 10917 10915 10912 10909 10905 10901 10896 10892 10887 10884 10879 10875 10870 10864
10893 10896 10899 10900 10902 10905 10907 10910 10912 10914 10916 10919 10920 10921 10923 10923 10923 10923 10924 10924 10924 10923 10922 10921 10920 10919 10917 10915 10913 10912 10910 10907 10904 10899 10894 10889 10884 10880 10876 10872 10867 10863 10857
10888 10892 10895 10897 10899 10901 10903 10905 10907 10910 10912 10914 10915 10917 10918 10918 10918 10919 10920 10920 10919 10919 10918 10917 10915 10914 10912 10910 10908 10906 10903 10901 10898 10893 10888 10882 10878 10874 10870 10865 10860 10854 10848
10884 10888 10891 10893 10895 10897 10899 10901 10903 10906 10908 10910 10911 10912 10912 10913 10914 10915 10915 10915 10915 10914 10913 10912 10910 10908 10906 10904 10902 10899 10896 10893 10888 10883 10879 10875 10871 10867 10862 10857 10852 10845 10840
10878 10882 10885 10888 10890 10893 10895 10897 10899 10902 10903 10905 10905 10906 10907 10908 10909 10910 10911 10910 10910 10909 10908 10906 10904 10902 10900 10897 10895 10893 10889 10884 10880 10876 10871 10867 10864 10859 10854 10848 10843 10837 10831
10872 10876 10879 10882 10885 10888 10891 10893 10895 10897 10898 10899 10900 10901 10903 10904 10905 10906 10905 10905 10904 10903 10902 10900 10897 10894 10892 10890 10887 10884 10880 10877 10872 10868 10864 10860 10855 10850 10844 10838 10832 10826 10821
10866 10869 10873 10877 10879 10882 10885 10888 10891 10892 10893 10894 10895 10897 10898 10899 10899 10898 10898 10898 10898 10897 10895 10892 10890 10887 10885 10882 10879 10874 10872 10868 10863 10858 10854 10850 10845 10839 10833 10828 10822 10816 10810
10859 10863 10867 10871 10874 10877 10880 10882 10884 10886 10887 10889 10889 10891 10893 10894 10893 10893 10892 10892 10891 10890 10888 10885 10883 10880 10877 10874 10870 10866 10861 10858 10853 10848 10843 10838 10833 10828 10823 10817 10810 10804 10798
10853 10858 10861 10864 10868 10871 10873 10876 10878 10880 10882 10883 10883 10884 10885 10885 10886 10886 10886 10885 10884 10882 10881 10878 10875 10872 10870 10866 10862 10857 10852 10847 10843 10840 10834 10827 10822 10817 10811 10805 10799 10792 10786
10845 10849 10854 10858 10861 10864 10867 10869 10871 10873 10875 10877 10876 10877 10877 10878 10878 10877 10877 10876 10875 10874 10872 10869 10867 10864 10861 10856 10852 10848 10843 10837 10833 10829 10825 10819 10812 10806 10800 10794 10788 10783 10776
10837 10842 10847 10850 10854 10857 10860 10863 10864 10866 10868 10869 10870 10870 10870 10870 10870 10869 10868 10867 10867 10866 10863 10860 10857 10854 10851 10848 10842 10838 10834 10828 10822 10816 10812 10807 10802 10796 10789 10783 10777 10771 10765
10825 10833 10839 10844 10848 10851 10854 10855 10856 10858 10861 10861 10863 10863 10862 10862 10862 10861 10859 10858 10857 10856 10854 10850 10846 10843 10840 10837 10833 10829 10824 10818 10811 10806 10800 10794 10790 10785 10777 10771 10765 10758 10751
10818 10823 10830 10835 10839 10843 10844 10847 10849 10851 10852 10853 10855 10855 10855 10854 10854 10853 10851 10850 10848 10845 10842 10839 10836 10832 10829 10825 10822 10819 10814 10808 10801 10794 10788 10782 10777 10771 10765 10757 10750 10744 10737
10810 10817 10819 10824 10828 10831 10835 10838 10839 10841 10842 10844 10846 10846 10845 10845 10845 10843 10841 10839 10839 10835 10832 10828 10826 10822 10817 10812 10810 10807 10802 10796 10789 10781 10773 10766 10759 10754 10748 10741 10734 10728 10723
10802 10806 10810 10814 10817 10821 10825 10829 10831 10833 10834 10835 10836 10836 10836 10835 10834 10832 10830 10829 10827 10824 10821 10818 10815 10811 10805 10801 10797 10794 10788 10783 10775 10767 10759 10751 10743 10735 10729 10724 10717 10710 10706
10794 10797 10800 10803 10807 10811 10816 10820 10822 10824 10825 10827 10826 10827 10826 10824 10823 10822 10819 10817 10816 10812 10808 10805 10801 10797 10792 10787 10783 10778 10773 10767 10761 10751 10741 10735 10727 10718 10708 10701 10696 10691 10688
10782 10785 10790 10793 10796 10801 10805 10809 10812 10814 10814 10815 10814 10814 10814 10814 10813 10811 10807 10804 10802 10799 10794 10791 10788 10782 10777 10771 10768 10762 10757 10751 10743 10733 10726 10718 10709 10698 10689 10680 10674 10669 10667
10768 10773 10780 10786 10789 10792 10796 10799 10802 10802 10803 10802 10801 10800 10801 10801 10801 10799 10796 10794 10791 10787 10783 10778 10775 10770 10765 10760 10755 10748 10743 10734 10725 10716 10708 10699 10690 10680 10672 10663 10656 10650 10645
10756 10762 10769 10775 10779 10783 10787 10789 10790 10790 10790 10791 10790 10790 10790 10789 10788 10787 10784 10780 10777 10775 10770 10765 10761 10758 10753 10745 10738 10734 10730 10721 10707 10697 10687 10677 10668 10658 10651 10644 10637 10631 10624
10744 10750 10756 10760 10765 10770 10775 10777 10779 10781 10780 10779 10780 10779 10777 10776 10775 10774 10772 10768 10765 10762 10758 10751 10744 10739 10734 10726 10719 10711 10710 10705 10693 10679 10667 10656 10648 10640 10630 10622 10612 10602 10597
10731 10736 10742 10747 10753 10756 10760 10763 10766 10768 10769 10769 10768 10768 10767 10767 10764 10763 10760 10758 10755 10752 10746 10738 10732 10726 10719 10712 10702 10692 10686 10681 10676 10670 10654 10640 10626 10617 10606 10597 10587 10579 10573
10715 10721 10728 10735 10740 10744 10746 10749 10752 10753 10754 10753 10752 10751 10750 10749 10750 10749 10747 10742 10740 10737 10734 10729 10721 10713 10705 10697 10687 10678 10666 10658 10648 10642 10640 10626 10612 10595 10583 10573 10566 10556 10548
10700 10707 10713 10720 10724 10729 10733 10736 10738 10740 10740 10740 10740 10739 10738 10736 10734 10732 10729 10725 10720 10717 10713 10709 10704 10696 10688 10678 10670 10660 10649 10639 10628 10617 10610 10603 10592 10576 10564 10550 10541 10532 10525